Flag for Switzerland Weather past 2 weeks in Lucerne, Lucerne, Switzerland

Now
38 °F

Chilly.


Feels Like: 38 °F
Forecast: 30 / 40 °F
Wind: 2 mph from West

Location: Giswil

Current Time: Dec 25, 2014 at 8:28:26 AM

Latest Report: Dec 25, 2014 at 7:00 AM


Visibility: N/A

Pressure: 30.35 "Hg

Humidity: 92%

Dew point: 35 °F

Location of LucerneLocation

Historic Weather in Lucerne — Graph

°F

Lucerne temperature yesterday

Maximum temperature yesterday: 41 °F (at 2:00 PM)
Minimum temperature yesterday: 24 °F (at 12:00 AM)
Average temperature yesterday: 30 °F

Past Weeks' High & Low Weather Summary

 TemperatureHumidityPressure
High50 °F (Dec 19, 10:00 PM)100% (Dec 10, 7:00 AM)30.65 "Hg (Dec 10, 7:00 AM)
Low24 °F (Dec 23, 5:00 AM)48% (Dec 11, 7:00 PM)29.90 "Hg (Dec 12, 9:00 PM)
Average38 °F93%30.24 "Hg
* Reported Dec 10 7:00 AM — Dec 25 7:00 AM, Lucerne, Weather by CustomWeather, © 2014

Note: Actual official high and low records may vary slightly from our data, if they occured in-between our weather recording intervals... More about our weather records

Advertising

Lucerne weather history for previous 24 hours

 ConditionsComfort  
Time TempWeatherWind HumidityBarometerVisibility
7:00 AM
Dec 25
38 °FChilly.2 mph92%30.35 "HgN/A
6:00 AM37 °FChilly.1 mph97%30.34 "HgN/A
5:00 AM37 °FChilly.1 mph95%30.34 "HgN/A
3:00 AM37 °FChilly.No wind94%30.34 "HgN/A
2:00 AM40 °FQuite cool.3 mph84%30.34 "HgN/A
1:00 AM39 °FChilly.7 mph89%30.34 "HgN/A
12:00 AM35 °FChilly.3 mph100%30.36 "HgN/A
11:00 PM
Dec 24
29 °FChilly.2 mph100%30.41 "HgN/A
10:00 PM32 °FChilly.2 mph100%30.41 "HgN/A
9:00 PM30 °FChilly.1 mph100%30.41 "HgN/A
8:00 PM28 °FChilly.3 mph100%30.42 "HgN/A
7:00 PM27 °FChilly.2 mph100%30.42 "HgN/A
6:00 PM29 °FChilly.1 mph100%30.40 "HgN/A
5:00 PM31 °FChilly.2 mph100%30.37 "HgN/A
4:00 PM34 °FChilly.2 mph95%30.36 "HgN/A
3:00 PM41 °FQuite cool.1 mph76%30.34 "HgN/A
2:00 PM41 °FQuite cool.1 mph77%30.35 "HgN/A
1:00 PM39 °FChilly.No wind84%30.38 "HgN/A
12:00 PM35 °FChilly.1 mph100%30.41 "HgN/A
11:00 AM33 °FChilly.1 mph100%30.42 "HgN/A
10:00 AM28 °FChilly.1 mph100%30.43 "HgN/A
9:00 AM25 °FChilly.2 mph100%30.42 "HgN/A
8:00 AM26 °FChilly.2 mph100%30.40 "HgN/A
Weather by CustomWeather, © 2014

See weather overviewHow to use our weather pages